#timestamp,LO_Frequency,Hit 
1505401215.6,286046987.1,N
1505401235.5,286046984.4,N
1505401255.3,286046982.2,N
1505401275.1,286046984.9,N
1505401295.9,286046985.2,N
1505401315.7,286046989.3,N
1505401335.5,286047002.5,N
1505401355.4,286047005.0,N
1505401375.2,286047009.7,N
1505401395.0,286047016.4,N
1505401395.9,286047016.4,N
1505401415.8,286047017.8,N
1505401435.6,286047015.4,N
1505401455.4,286047016.8,N
1505401475.3,286047023.3,N
1505401495.1,286047026.7,N
1505401496.0,286047026.7,N
1505401515.8,286047023.8,N
1505401535.7,286047027.9,N
1505401555.5,286047024.1,N
1505401575.3,286047021.3,N
1505401595.1,286047017.0,N
1505401615.9,286047017.5,N
1505401635.7,286047018.9,N
1505401655.5,286047017.9,N
1505401675.4,286047019.4,N
1505401695.2,286047023.0,N
1505401715.0,286047022.6,N
1505401715.9,286047022.6,N
1505401735.8,286047016.5,N
1505401755.6,286047014.6,N
1505401775.4,286047009.2,N
1505401795.3,286047003.7,N
1505401815.1,286047001.1,N
1505401816.0,286047001.1,N
1505401835.8,286047006.0,N
1505401855.7,286047009.5,N
1505401875.6,286047011.6,N
1505401895.4,286047007.1,N
1505401915.2,286047001.3,N
1505401935.1,286046999.2,N
1505401936.0,286046999.2,N
1505401955.8,286046996.7,N
1505401975.6,286047005.7,N
1505401995.5,286047012.8,N
1505402015.3,286047021.1,N
1505402035.1,286047027.6,N
1505402055.9,286047031.3,P
1505402075.7,286047017.0,N
1505402095.5,286047015.1,N
1505402115.4,286047010.7,N
1505402135.2,286047014.1,N
1505402155.0,286047009.0,N
1505402155.9,286047009.0,N
1505402175.7,286047000.9,N
1505402195.6,286046995.4,N
1505402215.4,286046993.9,N
1505402235.2,286046999.6,N
1505402255.1,286046998.1,N
1505402256.0,286046998.1,N
1505402275.8,286047001.8,N
1505402295.6,286047007.0,N
1505402315.5,286047007.6,N
1505402335.3,286047000.5,N
1505402355.1,286046993.7,N
1505402375.9,286046994.8,N
1505402395.7,286046999.6,N
1505402415.5,286047002.7,N
1505402435.4,286047013.1,N
1505402455.2,286047021.9,N
1505402475.0,286047024.4,N
1505402475.9,286047024.4,N
1505402495.7,286047021.9,N
1505402515.6,286047024.4,N
1505402535.4,286047023.7,N
1505402555.2,286047017.7,N
1505402575.1,286047010.3,N
1505402576.0,286047010.3,N
1505402595.8,286047003.6,N
1505402615.6,286047005.3,N
1505402635.5,286047012.4,N
1505402655.3,286047014.9,N
1505402675.1,286047015.1,N
1505402695.9,286047013.6,N
1505402715.7,286047017.4,N
1505402735.5,286047024.0,N
1505402755.4,286047028.1,N
1505402775.2,286047023.3,N
1505402795.0,286047013.1,N
1505402795.9,286047013.1,N
1505402815.7,286047004.7,N
1505402835.6,286047000.4,N
1505402855.4,286046997.6,N
1505402875.2,286046997.6,N
1505402895.1,286047004.5,N
1505402896.0,286047004.5,N
1505402915.8,286047016.8,N
1505402935.6,286047019.6,N
1505402955.5,286047019.8,N
1505402975.3,286047023.3,N
1505402995.1,286047022.3,N
1505403015.9,286047034.6,P
1505403035.7,286047016.6,N
1505403055.5,286047015.7,N
1505403075.4,286047015.4,N
1505403095.2,286047013.7,N
1505403115.0,286047010.9,N
1505403115.9,286047010.9,N
1505403135.8,286047022.0,P
1505403155.6,286047006.8,N
1505403175.4,286047005.2,N
1505403195.3,286047014.6,N
1505403215.1,286047020.4,P
1505403235.8,286047009.1,N
1505403255.7,286047004.8,N
1505403275.5,286047006.8,N
1505403295.3,286047008.4,N
1505403315.2,286047003.4,N
1505403335.9,286047000.7,N
1505403355.7,286046996.6,N
1505403375.6,286046995.0,N
1505403395.4,286046994.0,N
1505403415.2,286046987.7,N
1505403435.1,286046982.2,N
1505403436.0,286046982.2,N
1505403455.8,286046983.9,N
1505403475.6,286046995.0,N
1505403495.5,286047003.3,N
1505403515.3,286047011.8,N
1505403535.1,286047014.1,N
1505403555.8,286047012.2,N
1505403575.7,286047008.8,N
1505403595.5,286047005.3,N
1505403615.3,286047007.5,N
1505403635.2,286046998.3,N
1505403655.9,286046995.3,N
1505403675.7,286047003.5,N
1505403695.6,286047010.8,N
1505403715.4,286047008.8,N
1505403735.2,286047005.7,N
1505403755.1,286047004.0,N
1505403756.0,286047004.0,N
1505403775.8,286047004.5,N
1505403795.6,286047004.4,N
1505403815.4,286046998.9,N
1505403835.3,286046991.7,N
1505403855.1,286046991.1,N
1505403875.8,286046989.4,N
1505403895.7,286046989.6,N
1505403915.5,286046989.3,N
1505403935.3,286046991.0,N
1505403955.2,286046991.0,N
1505403975.0,286046986.9,N
1505403975.9,286046986.9,N
1505403995.7,286046989.3,N
1505404015.6,286046999.0,N
1505404035.4,286047002.9,N
1505404055.2,286047010.4,N
1505404075.1,286047007.9,N
1505404076.0,286047007.9,N
1505404095.8,286047014.3,N
1505404115.6,286047011.0,N
1505404135.5,286047004.6,N
1505404155.3,286046998.4,N
1505404175.1,286046996.2,N
1505404195.9,286046990.7,N
1505404215.7,286046989.1,N
1505404235.5,286046997.9,N
1505404255.3,286046998.2,N
1505404275.2,286047000.9,N
1505404295.0,286047006.5,N
1505404295.9,286047006.5,N
1505404315.7,286047008.0,N
1505404335.6,286047003.0,N
1505404355.4,286047005.2,N
1505404375.2,286047001.4,N
1505404395.1,286046999.4,N
1505404396.0,286046999.4,N
1505404415.8,286046992.7,N
1505404435.6,286046987.9,N
1505404455.5,286046997.9,N
1505404475.3,286047001.0,N
1505404495.1,286047003.4,N
1505404515.9,286047003.7,N
1505404535.7,286047007.1,N
1505404555.5,286047010.6,N
1505404575.4,286047010.0,N
1505404595.2,286047015.2,N
1505404615.0,286047011.9,N
1505404615.9,286047011.9,N
1505404635.8,286047008.4,N
1505404655.6,286047003.9,N
1505404675.4,286047002.7,N
1505404695.2,286046993.7,N
1505404715.1,286046990.6,N
1505404716.0,286046990.6,N
1505404735.8,286046990.3,N
1505404755.6,286046990.1,N
1505404775.5,286046990.2,N
1505404795.3,286046992.6,N
